Hourly Weather Kituri

Today, 30 July, Friday

Time Temperature Precipitation Wind Pressure Humidity
00:00 +12°C° 0 mm 1 mps 622 mmHg 90%
01:00 +12°C° 0 mm 1 mps 622 mmHg 89%
02:00 +11°C° 0 mm 1 mps 621 mmHg 89%
03:00 +11°C° 0 mm 1 mps 621 mmHg 88%
04:00 +12°C° 0 mm 1 mps 621 mmHg 86%
05:00 +13°C° 0 mm 1 mps 622 mmHg 85%
06:00 +13°C° 0 mm 1 mps 622 mmHg 83%
07:00 +15°C° 0 mm 1 mps 622 mmHg 76%
08:00 +18°C° 0 mm 1 mps 623 mmHg 69%
09:00 +20°C° 0 mm 1 mps 623 mmHg 63%
10:00 +20°C° 0 mm 2 mps 623 mmHg 62%
11:00 +20°C° 0 mm 2 mps 623 mmHg 61%
12:00 +21°C° 0 mm 2 mps 623 mmHg 60%
13:00 +20°C° 0.2 mm 2 mps 623 mmHg 64%
14:00 +20°C° 0.2 mm 2 mps 623 mmHg 67%
15:00 +21°C° 0.2 mm 1 mps 622 mmHg 70%
16:00 +20°C° 0.5 mm 1 mps 622 mmHg 74%
17:00 +20°C° 0.5 mm 1 mps 622 mmHg 77%
18:00 +19°C° 0.5 mm 1 mps 622 mmHg 81%
19:00 +18°C° 0.1 mm 1 mps 622 mmHg 84%
20:00 +16°C° 0.1 mm 1 mps 622 mmHg 86%
21:00 +15°C° 0.1 mm 1 mps 622 mmHg 88%
22:00 +15°C° 0 mm 1 mps 622 mmHg 88%
23:00 +15°C° 0 mm 1 mps 622 mmHg 88%

Tomorrow, 31 July, Saturday

Time Temperature Precipitation Wind Pressure Humidity
00:00 +15°C° 0 mm 2 mps 622 mmHg 88%
01:00 +14°C° 0 mm 1 mps 622 mmHg 88%
02:00 +14°C° 0 mm 1 mps 621 mmHg 87%
03:00 +13°C° 0 mm 1 mps 621 mmHg 87%
04:00 +14°C° 0 mm 1 mps 621 mmHg 86%
05:00 +14°C° 0 mm 1 mps 621 mmHg 85%
06:00 +15°C° 0 mm 1 mps 621 mmHg 83%
07:00 +18°C° 0 mm 1 mps 622 mmHg 76%
08:00 +20°C° 0 mm 1 mps 622 mmHg 70%
09:00 +22°C° 0 mm 1 mps 623 mmHg 63%
10:00 +22°C° 0.6 mm 1 mps 623 mmHg 64%
11:00 +22°C° 0.6 mm 1 mps 623 mmHg 65%
12:00 +23°C° 0.6 mm 2 mps 623 mmHg 66%
13:00 +21°C° 1.6 mm 2 mps 623 mmHg 67%
14:00 +22°C° 1.6 mm 1 mps 623 mmHg 67%
15:00 +22°C° 1.6 mm 1 mps 623 mmHg 67%
16:00 +21°C° 1.1 mm 1 mps 623 mmHg 72%
17:00 +21°C° 1.1 mm 1 mps 623 mmHg 76%
18:00 +20°C° 1.1 mm 1 mps 623 mmHg 81%
19:00 +18°C° 0.1 mm 1 mps 622 mmHg 83%
20:00 +16°C° 0.1 mm 1 mps 622 mmHg 86%
21:00 +15°C° 0.1 mm 1 mps 622 mmHg 88%
22:00 +15°C° 0 mm 1 mps 622 mmHg 88%
23:00 +15°C° 0 mm 1 mps 622 mmHg 87%

Day after tomorrow, 1 August, Sunday

Time Temperature Precipitation Wind Pressure Humidity
00:00 +15°C° 0 mm 1 mps 622 mmHg 87%
01:00 +15°C° 0 mm 1 mps 622 mmHg 87%
02:00 +14°C° 0 mm 1 mps 622 mmHg 87%
03:00 +14°C° 0 mm 1 mps 622 mmHg 87%
04:00 +15°C° 0 mm 1 mps 622 mmHg 86%
05:00 +15°C° 0 mm 1 mps 622 mmHg 85%
06:00 +16°C° 0 mm 1 mps 623 mmHg 84%
07:00 +19°C° 0 mm 1 mps 623 mmHg 78%
08:00 +20°C° 0 mm 1 mps 624 mmHg 71%
09:00 +22°C° 0 mm 1 mps 624 mmHg 64%
10:00 +21°C° 0.3 mm 2 mps 624 mmHg 62%
11:00 +23°C° 0.3 mm 2 mps 624 mmHg 60%
12:00 +23°C° 0.3 mm 2 mps 624 mmHg 58%
13:00 +23°C° 0.6 mm 2 mps 624 mmHg 58%
14:00 +24°C° 0.6 mm 2 mps 624 mmHg 58%
15:00 +24°C° 0.6 mm 1 mps 624 mmHg 58%
16:00 +23°C° 0.8 mm 1 mps 624 mmHg 64%
17:00 +22°C° 0.8 mm 1 mps 624 mmHg 70%
18:00 +19°C° 0.8 mm 0 mps 623 mmHg 77%
19:00 +18°C° 0.5 mm 0 mps 623 mmHg 79%
20:00 +18°C° 0.5 mm 1 mps 623 mmHg 82%
21:00 +16°C° 0.5 mm 1 mps 623 mmHg 84%
22:00 +16°C° 0.2 mm 1 mps 623 mmHg 86%
23:00 +15°C° 0.2 mm 1 mps 623 mmHg 87%

2 August, Monday

Time Temperature Precipitation Wind Pressure Humidity
00:00 +15°C° 0.2 mm 2 mps 623 mmHg 89%
01:00 +15°C° 0 mm 1 mps 623 mmHg 88%
02:00 +15°C° 0 mm 1 mps 622 mmHg 87%
03:00 +14°C° 0 mm 1 mps 622 mmHg 87%
04:00 +15°C° 0 mm 1 mps 623 mmHg 86%
05:00 +15°C° 0 mm 1 mps 623 mmHg 85%
06:00 +16°C° 0 mm 1 mps 623 mmHg 83%
07:00 +18°C° 0 mm 1 mps 624 mmHg 77%
08:00 +18°C° 0 mm 2 mps 624 mmHg 71%
09:00 +20°C° 0 mm 2 mps 625 mmHg 64%
10:00 +20°C° 0.2 mm 2 mps 625 mmHg 62%
11:00 +20°C° 0.2 mm 2 mps 625 mmHg 59%
12:00 +21°C° 0.2 mm 2 mps 625 mmHg 56%
13:00 +21°C° 0.2 mm 2 mps 624 mmHg 55%
14:00 +21°C° 0.2 mm 2 mps 624 mmHg 53%
15:00 +23°C° 0.2 mm 2 mps 624 mmHg 52%
16:00 +21°C° 0.2 mm 2 mps 624 mmHg 57%
17:00 +21°C° 0.2 mm 1 mps 624 mmHg 63%
18:00 +20°C° 0.2 mm 1 mps 624 mmHg 68%
19:00 +19°C° 0 mm 1 mps 624 mmHg 69%
20:00 +18°C° 0 mm 1 mps 624 mmHg 70%
21:00 +16°C° 0 mm 1 mps 623 mmHg 71%
22:00 +15°C° 0 mm 1 mps 623 mmHg 71%
23:00 +15°C° 0 mm 1 mps 623 mmHg 72%

3 August, Tuesday

Time Temperature Precipitation Wind Pressure Humidity
00:00 +14°C° 0 mm 1 mps 623 mmHg 73%
01:00 +14°C° 0 mm 1 mps 623 mmHg 73%
02:00 +14°C° 0 mm 1 mps 622 mmHg 74%
03:00 +13°C° 0 mm 1 mps 622 mmHg 74%
04:00 +14°C° 0 mm 1 mps 623 mmHg 73%
05:00 +15°C° 0 mm 1 mps 623 mmHg 73%
06:00 +15°C° 0 mm 1 mps 624 mmHg 72%
07:00 +19°C° 0 mm 1 mps 624 mmHg 65%
08:00 +21°C° 0 mm 1 mps 625 mmHg 58%
09:00 +23°C° 0 mm 1 mps 625 mmHg 51%
10:00 +23°C° 0.1 mm 2 mps 625 mmHg 50%
11:00 +24°C° 0.1 mm 2 mps 625 mmHg 49%
12:00 +24°C° 0.1 mm 2 mps 625 mmHg 48%
13:00 +24°C° 0.2 mm 2 mps 625 mmHg 51%
14:00 +24°C° 0.2 mm 1 mps 625 mmHg 53%
15:00 +24°C° 0.2 mm 1 mps 625 mmHg 56%
16:00 +23°C° 0.3 mm 1 mps 625 mmHg 59%
17:00 +23°C° 0.3 mm 1 mps 625 mmHg 63%
18:00 +20°C° 0.3 mm 0 mps 625 mmHg 66%
19:00 +21°C° 0.1 mm 1 mps 625 mmHg 68%
20:00 +19°C° 0.1 mm 1 mps 624 mmHg 70%
21:00 +16°C° 0.1 mm 1 mps 624 mmHg 72%
22:00 +16°C° 0 mm 1 mps 624 mmHg 72%
23:00 +15°C° 0 mm 1 mps 624 mmHg 72%

4 August, Wednesday

Time Temperature Precipitation Wind Pressure Humidity
00:00 +15°C° 0 mm 1 mps 624 mmHg 71%
01:00 +15°C° 0 mm 1 mps 624 mmHg 71%
02:00 +15°C° 0 mm 2 mps 624 mmHg 70%
03:00 +14°C° 0 mm 2 mps 624 mmHg 70%
04:00 +15°C° 0 mm 2 mps 624 mmHg 70%
05:00 +16°C° 0 mm 2 mps 625 mmHg 69%
06:00 +16°C° 0 mm 2 mps 625 mmHg 69%
07:00 +20°C° 0 mm 1 mps 626 mmHg 62%
08:00 +22°C° 0 mm 1 mps 626 mmHg 54%
09:00 +24°C° 0 mm 1 mps 627 mmHg 47%
10:00 +25°C° 0.1 mm 1 mps 627 mmHg 46%
11:00 +26°C° 0.1 mm 2 mps 627 mmHg 45%
12:00 +27°C° 0.1 mm 2 mps 627 mmHg 44%
13:00 +26°C° 0.3 mm 2 mps 627 mmHg 48%
14:00 +25°C° 0.3 mm 1 mps 627 mmHg 52%
15:00 +25°C° 0.3 mm 1 mps 626 mmHg 56%
16:00 +24°C° 0.5 mm 1 mps 626 mmHg 60%
17:00 +23°C° 0.5 mm 1 mps 626 mmHg 65%
18:00 +22°C° 0.5 mm 1 mps 626 mmHg 70%
19:00 +20°C° 0.2 mm 2 mps 626 mmHg 74%
20:00 +18°C° 0.2 mm 2 mps 626 mmHg 79%
21:00 +16°C° 0.2 mm 3 mps 626 mmHg 84%
22:00 +16°C° 0 mm 2 mps 626 mmHg 81%
23:00 +16°C° 0 mm 2 mps 626 mmHg 79%
Show more